Weather WX

World > North America > United States > North Carolina

Palmyra, North Carolina Regional Weather

Lat: 36.07N, Lon: 77.34W
Wx Zone: NCZ011
Warning FLW WEATHER ALERT - (More Info. Click Here) Warning
Feedback

Palmyra, NC Regional Weather

Expires:201907161900;;740724
ASUS42 KMHX 161825
RWRMHX
WEATHER ROUNDUP FOR EASTERN NORTH CAROLINA
NATIONAL WEATHER SERVICE NEWPORT/MOREHEAD CITY NC
200 PM EDT TUE JUL 16 2019

NOTE: "FAIR" INDICATES FEW OR NO CLOUDS BELOW 12,000 FEET
WITH NO SIGNIFICANT WEATHER AND/OR OBSTRUCTIONS TO VISIBILITY


NCZ011>013-027>030-043-044-078>080-089-090>093-098-161900-
COASTAL PLAIN
  
CITY           SKY/WX    TMP DP  RH WIND       PRES   REMARKS
AHOSKIE        NOT AVBL                                               
CLINTON        FAIR      95  71  45 CALM      30.09F HX 101           
ELIZABETHTOWN  FAIR      97  71  42 S8        30.09F HX 104           
GOLDSBORO      FAIR      95  70  44 S5        30.08F HX 101           
GREENVILLE     FAIR      95  73  49 SW6       30.09F HX 105           
HAVELOCK       FAIR      94  73  50 S10       30.10F HX 103           
KENANSVILLE    FAIR      95  70  43 W5        30.09F HX 101           
KINSTON        MOSUNNY   97  68  38 SW7       30.09F HX 101           
NEW BERN       FAIR      95  77  55 SW5       30.10F HX 109           
RICHLANDS      FAIR      95  74  50 S7        30.09F HX 105           
ROCKY MOUNT    FAIR      97  69  40 SW9       30.08F HX 103           
WASHINGTON     FAIR      96  70  42 S7        30.08F HX 101           
WHITEVILLE     FAIR      95  69  42 W3        30.09F HX 100           

$$


SKY/WX - Weather  TMP - Temperature  DP - Dew Point  RH - Relative Humidity
WIND - Wind Direction/Speed PRES - Barometric Pressure VSB - Visibility
WCI - Wind Chill Index E13G22 Wind - East Wind 13 mph/Gusts of 22 mph